TOURFACTS.DK  
Stats and Facts from Tour de France.

Tour de France 2018 starts in 287 days
  Riders   Stages   Teams   Summits   Yearly  


 
Search by year

 2017 - St. 21:  14824 starters.
  5131 different riders.
  634 teams.
  2232 stages.
  454 restdays.
  439589.60 km.
  5653 abandonnees.


Top 3
Christopher Froome86:20:55
Rigoberto Uran86:21:49
Romain Bardet86:23:15
Warren Barguil169 pt.
Primoz Roglic80 pt.
Thomas De Gendt64 pt.
Michael Matthews359 pt.
André Greipel234 pt.
Edvald Boasson Hagen220 pt.
Simon Yates86:27:09
Louis Meintjes86:29:15
Emanuel Buchmann86:54:16
Facts from Tour de France 2016
  |   Stages.  |   Stage winners.  |   Days in yellow  |   Average speed.  |   Route.  |   Teams.  |   All riders.  |   Rookies.  |   Withdrawls.  |  

  |   GC.  |   Polka  |   Green  |   White  |   Summits. (In tour)  |   Summits. (Points)  |   Miscellaneous.  |  

Stage 20 on 23 - 07 - 2016
         Owning:    Christopher Froome      Rafal Majka      Peter Sagan      Adam Yates  

Pick a stage:  1 2 3 4 5 6 7 8 9 10 11 12 13 14 15 16 17 18 19 20 21
  MegèveMorzine | Dist: 146.00 km.
Cat: 2Col de l'Aravis - ThônesBELThomas De Gendt
5 points
 
Cat: 1Col de la Colombiere BELThomas De Gendt
10 points
 
Cat: 1Col de la RamazBELThomas De Gendt
10 points
 
Cat: HCol de Joux-PlaneCOLJarlinson Pantano Gomez
25 points
 

Average speed for all riders in stage:  32,530 km./hr.
    Place:Name:Team:Time:Km/h:
ESPJon Izaguirre InsaustiESPMovistar Team04:06:45  +  00:00:00=35,502 
COLJarlinson Pantano GomezCHEIAM Cycling04:07:04  +  00:00:19=35,456 
ITAVincenzo NibaliKAZAstana Pro Team04:07:27  +  00:00:42=35,401 
4 FRAJulian AlaphilippeBELEtixx - Quick Step04:07:34  +  00:00:49=35,384 
5 NEDWilco KeldermanNLDTeam Lotto NL - Jumbo04:07:34  +  00:00:49=35,384 
6 PORRui CostaITALampre-Merida04:08:28  +  00:01:43=35,256 
7 CZERoman KreuzigerRUSTinkoff04:08:29  +  00:01:44=35,254 
8 ESPJoaquim RodriguezRUSTeam Katusha04:10:09  +  00:03:24=35,019 
9 ENGDaniel MartinBELEtixx - Quick Step04:10:57  +  00:04:12=34,907 
10 FRARomain BardetFRAAg2r La Mondiale04:10:57  +  00:04:12=34,907 
11 COLNairo QuintanaESPMovistar Team04:10:57  +  00:04:12=34,907 
12 ESPAlejandro ValverdeESPMovistar Team04:10:59  +  00:04:14=34,903 
13 ENGAdam YatesAUSORICA BikeExchange04:10:59  +  00:04:14=34,903 
14 RSALouis MeintjesITALampre-Merida04:10:59  +  00:04:14=34,903 
15 POLRafal MajkaRUSTinkoff04:11:02  +  00:04:17=34,896 
16 ITADamiano CarusoUSABMC Racing Team04:11:03  +  00:04:18=34,893 
17 NEDWout PoelsGBRSky Procycling04:11:03  +  00:04:18=34,893 
18 WALGeraint ThomasGBRSky Procycling04:11:03  +  00:04:18=34,893 
19 COLSergio Luis HenaoGBRSky Procycling04:11:03  +  00:04:18=34,893 
20 KENChristopher FroomeGBRSky Procycling04:11:03  +  00:04:18=34,893 
21 ESPMikel NieveGBRSky Procycling04:11:03  +  00:04:18=34,893 
22 AUSRichie PorteUSABMC Racing Team04:11:03  +  00:04:18=34,893 
23 FRAAlexis VuillermozFRAAg2r La Mondiale04:11:29  +  00:04:44=34,833 
24 FRAPierre RollandUSATeam Cannondale Drapac04:11:36  +  00:04:51=34,817 
25 BELThomas De GendtBELLotto Soudal04:12:27  +  00:05:42=34,700 
26 ESPLuis Angel MateFRACofidis – Solutions Crédits04:13:31  +  00:06:46=34,554 
27 ESPDaniel MorenoESPMovistar Team04:13:40  +  00:06:55=34,534 
28 SLOJan PolancITALampre-Merida04:13:40  +  00:06:55=34,534 
29 RUSIlnur ZakarinRUSTeam Katusha04:13:48  +  00:07:03=34,515 
30 ITADomenico PozzovivoFRAAg2r La Mondiale04:13:54  +  00:07:09=34,502 
31 SUISébastien ReichenbachFRAFDJ04:14:25  +  00:07:40=34,432 
32 NEDStef ClementCHEIAM Cycling04:14:49  +  00:08:04=34,378 
33 FRAPierre-Luc PérichonFRAFortuneo - Vital Concept04:15:34  +  00:08:49=34,277 
34 GEREmanuel BuchmannDEUBora-Argon 1804:15:55  +  00:09:10=34,230 
35 POLBartosz HuzarskiDEUBora-Argon 1804:15:55  +  00:09:10=34,230 
36 NEDBauke MollemaUSATrek – Segafredo04:16:34  +  00:09:49=34,143 
37 FRAArthur VichotFRAFDJ04:17:06  +  00:10:21=34,072 
38 ESPHaimar ZubeldiaUSATrek – Segafredo04:17:25  +  00:10:40=34,030 
39 BELJulien VermoteBELEtixx - Quick Step04:17:43  +  00:10:58=33,991 
40 LUXFränk SchleckUSATrek – Segafredo04:18:12  +  00:11:27=33,927 
41 FRASylvain ChavanelFRADirect Energie04:18:44  +  00:11:59=33,857 
42 SUIReto HollensteinCHEIAM Cycling04:19:02  +  00:12:17=33,818 
43 SUIMartin ElmigerCHEIAM Cycling04:19:02  +  00:12:17=33,818 
44 DENMichael ValgrenRUSTinkoff04:19:02  +  00:12:17=33,818 
45 GERSimon GeschkeDEUTeam Giant Alpecin04:19:08  +  00:12:23=33,805 
46 FRANicolas EdetFRACofidis – Solutions Crédits04:19:36  +  00:12:51=33,744 
47 BELJan BakelantsFRAAg2r La Mondiale04:19:36  +  00:12:51=33,744 
48 FRAAnthony RouxFRAFDJ04:20:02  +  00:13:17=33,688 
49 COLWinner AnaconaESPMovistar Team04:21:03  +  00:14:18=33,557 
50 RSADaryl ImpeyAUSORICA BikeExchange04:21:18  +  00:14:33=33,525 
51 BELJasper StuyvenUSATrek – Segafredo04:22:00  +  00:15:15=33,435 
52 GERPaul VossDEUBora-Argon 1804:22:51  +  00:16:06=33,327 
53 USABrent BookwalterUSABMC Racing Team04:24:10  +  00:17:25=33,161 
54 URSTanel KangertKAZAstana Pro Team04:24:23  +  00:17:38=33,134 
55 ESPLuis León SánchezKAZAstana Pro Team04:24:23  +  00:17:38=33,134 
56 ITAFabio AruKAZAstana Pro Team04:24:23  +  00:17:38=33,134 
57 ITADiego RosaKAZAstana Pro Team04:24:23  +  00:17:38=33,134 
58 KAZAlexey LutsenkoKAZAstana Pro Team04:24:23  +  00:17:38=33,134 
59 USATejay Van GarderenUSABMC Racing Team04:24:23  +  00:17:38=33,134 
60 FRAAmaël MoinardUSABMC Racing Team04:24:23  +  00:17:38=33,134 
61 ESPMikel Landa MeanaGBRSky Procycling04:24:23  +  00:17:38=33,134 
62 FRAFabrice JeandesbozFRADirect Energie04:24:48  +  00:18:03=33,082 
63 FRAMickaël CherelFRAAg2r La Mondiale04:24:53  +  00:18:08=33,071 
64 FRACyril GautierFRAAg2r La Mondiale04:24:53  +  00:18:08=33,071 
65 LUXBen GastauerFRAAg2r La Mondiale04:24:53  +  00:18:08=33,071 
66 BELSep VanmarckeNLDTeam Lotto NL - Jumbo04:26:42  +  00:19:57=32,846 
67 NEDTimo RoosenNLDTeam Lotto NL - Jumbo04:26:42  +  00:19:57=32,846 
68 AUTPatrick KonradDEUBora-Argon 1804:26:42  +  00:19:57=32,846 
69 NZLGeorge BennettNLDTeam Lotto NL - Jumbo04:26:42  +  00:19:57=32,846 
70 FRAWarren BarguilDEUTeam Giant Alpecin04:26:42  +  00:19:57=32,846 
71 ITAMatteo BonoITALampre-Merida04:27:38  +  00:20:53=32,731 
72 HRVKristijan DurasekITALampre-Merida04:27:38  +  00:20:53=32,731 
73 AUTGeorg PreidlerDEUTeam Giant Alpecin04:27:38  +  00:20:53=32,731 
74 NEDDylan Van BaarleUSATeam Cannondale Drapac04:27:38  +  00:20:53=32,731 
75 SUIMichael SchärUSABMC Racing Team04:27:38  +  00:20:53=32,731 
76 FRATony GallopinBELLotto Soudal04:27:38  +  00:20:53=32,731 
77 ESPImanol ErvitiESPMovistar Team04:27:38  +  00:20:53=32,731 
78 BELOliver NaesenCHEIAM Cycling04:27:38  +  00:20:53=32,731 
79 FRAJérôme CoppelCHEIAM Cycling04:27:38  +  00:20:53=32,731 
80 ETHTsgabu Gebremaryan GrmayITALampre-Merida04:27:53  +  00:21:08=32,701 
81 IRLChristopher Juul JensenAUSORICA BikeExchange04:28:54  +  00:22:09=32,577 
82 SLOLuka PibernikITALampre-Merida04:29:20  +  00:22:35=32,525 
83 PORNelson OliveiraESPMovistar Team04:29:20  +  00:22:35=32,525 
84 ITACesare BenedettiDEUBora-Argon 1804:29:44  +  00:22:59=32,477 
85 GERPaul MartensNLDTeam Lotto NL - Jumbo04:30:43  +  00:23:58=32,359 
86 USAPeter StetinaUSATrek – Segafredo04:33:16  +  00:26:31=32,057 
87 CZEJan BártaDEUBora-Argon 1804:33:16  +  00:26:31=32,057 
88 SUIJakob FuglsangKAZAstana Pro Team04:33:41  +  00:26:56=32,008 
89 FRA Alexis GougeardFRAAg2r La Mondiale04:33:41  +  00:26:56=32,008 
90 HRVRobert KiserlovskiRUSTinkoff04:34:07  +  00:27:22=31,957 
91 SUISteve MorabitoFRAFDJ04:34:42  +  00:27:57=31,889 
92 ERIDaniel TeklehaimanotZAFDimension Data04:34:42  +  00:27:57=31,889 
93 FRAJérôme CousinFRACofidis – Solutions Crédits04:34:42  +  00:27:57=31,889 
94 ESPAlberto LosadaRUSTeam Katusha04:34:42  +  00:27:57=31,889 
95 NEDTom-Jelte SlagterUSATeam Cannondale Drapac04:34:42  +  00:27:57=31,889 
96 BLRVasil KiryienkaGBRSky Procycling04:34:42  +  00:27:57=31,889 
97 SVKPeter SaganRUSTinkoff04:35:02  +  00:28:17=31,851 
98 ESPRubén PlazaAUSORICA BikeExchange04:36:19  +  00:29:34=31,703 
99 AUTMarco HallerRUSTeam Katusha04:36:22  +  00:29:37=31,697 
100 CANAntoine DuchesneFRADirect Energie04:36:25  +  00:29:40=31,691 
101 GERMarcus BurghardtUSABMC Racing Team04:36:37  +  00:29:52=31,668 
102 WALLuke RoweGBRSky Procycling04:36:37  +  00:29:52=31,668 
103 AUSMichael MatthewsAUSORICA BikeExchange04:36:37  +  00:29:52=31,668 
104 NORVegard BreenFRAFortuneo - Vital Concept04:36:37  +  00:29:52=31,668 
105 AUSAdam HansenBELLotto Soudal04:36:37  +  00:29:52=31,668 
106 BELGreg Van AvermaetUSABMC Racing Team04:36:37  +  00:29:52=31,668 
107 ENGIan StannardGBRSky Procycling04:36:37  +  00:29:52=31,668 
108 ITAPaolo TiralongoKAZAstana Pro Team04:36:37  +  00:29:52=31,668 
109 SLOKristjan KorenUSATeam Cannondale Drapac04:36:37  +  00:29:52=31,668 
110 NEDBert-Jan LindemanNLDTeam Lotto NL - Jumbo04:36:37  +  00:29:52=31,668 
111 DENChris Anker SørensenFRAFortuneo - Vital Concept04:36:37  +  00:29:52=31,668 
112 FRAAnthony DelaplaceFRAFortuneo - Vital Concept04:36:37  +  00:29:52=31,668 
113 FRABryan CoquardFRADirect Energie04:36:53  +  00:30:08=31,638 
114 JPNYukiya ArashiroITALampre-Merida04:36:53  +  00:30:08=31,638 
115 FRARomain SicardFRADirect Energie04:36:53  +  00:30:08=31,638 
116 ESPAngel ViciosoRUSTeam Katusha04:37:09  +  00:30:24=31,607 
117 FRABrice FeilluFRAFortuneo - Vital Concept04:37:29  +  00:30:44=31,569 
118 NORSondre Holst EngerCHEIAM Cycling04:40:11  +  00:33:26=31,265 
119 ITAOscar GattoRUSTinkoff04:40:31  +  00:33:46=31,228 
120 BELJürgen RoelandtsBELLotto Soudal04:40:31  +  00:33:46=31,228 
121 BRAMaximilano RichezeBELEtixx - Quick Step04:40:31  +  00:33:46=31,228 
122 NEDRoy CurversDEUTeam Giant Alpecin04:40:31  +  00:33:46=31,228 
123 GERAndré GreipelBELLotto Soudal04:40:31  +  00:33:46=31,228 
124 UKRAndriy GrivkoKAZAstana Pro Team04:40:31  +  00:33:46=31,228 
125 ITAFabio SabatiniBELEtixx - Quick Step04:40:39  +  00:33:54=31,213 
126 ITAMatteo TosattoRUSTinkoff04:40:39  +  00:33:54=31,213 
127 GERMarcel SiebergBELLotto Soudal04:40:43  +  00:33:58=31,206 
128 GERRobert WagnerNLDTeam Lotto NL - Jumbo04:40:43  +  00:33:58=31,206 
129 FRAArnold JeannessonFRACofidis – Solutions Crédits04:40:43  +  00:33:58=31,206 
130 USALawson CraddockUSATeam Cannondale Drapac04:40:43  +  00:33:58=31,206 
131 GERMarcel KittelBELEtixx - Quick Step04:40:53  +  00:34:08=31,187 
132 SUIGregory RastUSATrek – Segafredo04:40:53  +  00:34:08=31,187 
133 CZEPetr VakocBELEtixx - Quick Step04:40:53  +  00:34:08=31,187 
134 ITAJacopo GuarnieriRUSTeam Katusha04:40:53  +  00:34:08=31,187 
135 NORAlexander KristoffRUSTeam Katusha04:40:53  +  00:34:08=31,187 
136 ARGEduardo SepulvedaFRAFortuneo - Vital Concept04:40:53  +  00:34:08=31,187 
137 FRAFlorian VachonFRAFortuneo - Vital Concept04:40:53  +  00:34:08=31,187 
138 RSAReinardt Janse Van RensburgZAFDimension Data04:40:53  +  00:34:08=31,187 
139 ENGDaniel McLayFRAFortuneo - Vital Concept04:40:53  +  00:34:08=31,187 
140 ITADavide CimolaiITALampre-Merida04:40:53  +  00:34:08=31,187 
141 FRAJérémy RoyFRAFDJ04:40:53  +  00:34:08=31,187 
142 AUSLeigh HowardCHEIAM Cycling04:40:53  +  00:34:08=31,187 
143 AUSMathew HaymanAUSORICA BikeExchange04:40:53  +  00:34:08=31,187 
144 FRACyril LemoineFRACofidis – Solutions Crédits04:40:53  +  00:34:08=31,187 
145 FRAWilliam BonnetFRAFDJ04:40:53  +  00:34:08=31,187 
146 AUTBernhard EiselZAFDimension Data04:40:53  +  00:34:08=31,187 
147 FRAArmindo FonsecaFRAFortuneo - Vital Concept04:40:53  +  00:34:08=31,187 
148 NZLGregory HendersonBELLotto Soudal04:40:53  +  00:34:08=31,187 
149 NEDDylan GroenewegenNLDTeam Lotto NL - Jumbo04:40:53  +  00:34:08=31,187 
150 AUSLuke DurbridgeAUSORICA BikeExchange04:40:53  +  00:34:08=31,187 
151 GERJohn DegenkolbDEUTeam Giant Alpecin04:40:53  +  00:34:08=31,187 
152 USAAlex HowesUSATeam Cannondale Drapac04:40:53  +  00:34:08=31,187 
153 BELSerge PauwelsZAFDimension Data04:40:53  +  00:34:08=31,187 
154 FRASamuel DumoulinFRAAg2r La Mondiale04:40:53  +  00:34:08=31,187 
155 FRAChristophe LaporteFRACofidis – Solutions Crédits04:40:53  +  00:34:08=31,187 
156 BELMaarten WynantsNLDTeam Lotto NL - Jumbo04:40:53  +  00:34:08=31,187 
157 ERINatnael Teweldemedhin BerhaneZAFDimension Data04:40:53  +  00:34:08=31,187 
158 DENLars BakBELLotto Soudal04:40:53  +  00:34:08=31,187 
159 ESPMarkel IrizarUSATrek – Segafredo04:40:53  +  00:34:08=31,187 
160 BELIljo KeisseBELEtixx - Quick Step04:40:53  +  00:34:08=31,187 
161 FRAThomas VoecklerFRADirect Energie04:41:17  +  00:34:32=31,143 
162 FRAYohann GèneFRADirect Energie04:41:17  +  00:34:32=31,143 
163 NEDAlbert TimmerDEUTeam Giant Alpecin04:41:19  +  00:34:34=31,139 
164 NEDRamon SinkeldamDEUTeam Giant Alpecin04:41:19  +  00:34:34=31,139 
165 NEDLaurens ten DamDEUTeam Giant Alpecin04:41:19  +  00:34:34=31,139 
166 URSRamunas NavardauskasUSATeam Cannondale Drapac04:41:19  +  00:34:34=31,139 
167 GERAndreas SchillingerDEUBora-Argon 1804:41:19  +  00:34:34=31,139 
168 SUIMichael AlbasiniAUSORICA BikeExchange04:41:19  +  00:34:34=31,139 
169 BELSam BennettDEUBora-Argon 1804:41:19  +  00:34:34=31,139 
170 ENGStephen CummingsZAFDimension Data04:41:19  +  00:34:34=31,139 
171 NOREdvald Boasson HagenZAFDimension Data04:41:19  +  00:34:34=31,139 
172 POLMaciej BodnarRUSTinkoff04:41:45  +  00:35:00=31,091 
173 FRAAdrien PetitFRADirect Energie04:42:13  +  00:35:28=31,040 
174 FRAGeoffrey SoupeFRACofidis – Solutions Crédits04:42:13  +  00:35:28=31,040 
175 GERTony MartinBELEtixx - Quick Step04:43:04  +  00:36:19=30,947 


Todays birthdays.

1892  Fernand Bozzo
1905  Achille Viaene
1912  Albert Van Schendel
1930  Benigno Aspuru
1936  Guy Epaud
1937  Göran Karlsson
1941  Jorge Marine
1942  René Grelin
1948  Daniel Verplancke
1951  Giovanni Dalla Bona
1966  Didier Virvaleix
1971  Jérôme Bernard